Torna al catalogo

FENGYUN 1C DEB

AttivoPO
NORAD 32119·DEBRIS·🇨🇳 China

Lanciato May 10, 1999 da Taiyuan Satellite Launch Center

Loading…

Prossimi Passaggi (prossime 24 ore)

TLE

In scadenzaSource: Space-Track

Epoca: Sep 9, 2026, 10:19 UTC

1 32119U 99025CRM 26252.43038752  .00000749  00000-0  49497-3 0  9996
2 32119  99.8606 142.8155 0086520  41.8441 318.9294 14.03395187975249

Traccia FENGYUN 1C DEB in tempo reale con AllMySat

Download on the App Store